FW4334 Weather Reports


Display with metric or nautical units.
time (UTC)temp
F
wind
direction
speed
MPH
gust
MPH
rain 1hr
in
rain 24hr
in
rain mn
in
humidity
%
barometer
mb
20260509034534 69 10 0.0 0.0 0.00 0.09 0.09 91 1016.3
20260509034026 69 10 0.0 2.0 0.00 0.09 0.09 90 1016.2
20260509033526 69 11 0.0 2.0 0.00 0.09 0.09 90 1016.0
20260509033026 70 291 0.0 0.0 0.00 0.09 0.09 91 1016.0
20260509032525 70 289 0.0 2.0 0.00 0.09 0.09 91 1016.1
20260509032024 70 289 0.0 2.0 0.00 0.09 0.09 90 1016.3
20260509031532 70 75 0.0 0.0 0.00 0.09 0.09 91 1016.1
20260509031023 70 32 0.0 0.0 0.00 0.09 0.09 91 1016.0
20260509030523 70 124 0.0 0.0 0.00 0.09 0.09 91 1016.1
20260509030040 70 130 0.0 0.0 0.00 0.09 0.09 91 1015.8
20260509025523 70 131 0.0 0.0 0.00 0.09 0.09 92 1016.0
20260509025022 70 131 0.0 0.0 0.00 0.09 0.09 92 1015.8
20260509024522 70 131 0.0 0.0 0.00 0.09 0.09 92 1015.7
20260509024022 70 131 0.0 0.0 0.00 0.09 0.09 92 1015.7
20260509023521 70 131 0.0 0.0 0.00 0.09 0.09 92 1015.6
20260509023029 70 131 0.0 0.0 0.00 0.09 0.09 92 1015.6
20260509022522 70 131 0.0 0.0 0.00 0.09 0.09 91 1015.4
20260509022022 70 131 0.0 0.0 0.00 0.09 0.09 91 1015.4
20260509021533 70 131 0.0 0.0 0.00 0.09 0.09 91 1015.3
20260509021021 70 131 0.0 0.0 0.00 0.09 0.09 91 1015.2
20260509020520 70 132 0.0 0.0 0.00 0.09 0.09 91 1014.7
20260509020020 70 132 0.0 0.0 0.00 0.09 0.09 91 1015.1
20260509015520 70 132 0.0 0.0 0.00 0.09 0.09 91 1015.1
20260509015018 70 132 0.0 0.0 0.00 0.09 0.09 91 1014.9
20260509014518 70 132 0.0 0.0 0.00 0.09 0.09 91 1014.8
20260509014020 70 132 0.0 0.0 0.00 0.09 0.09 91 1014.3
20260509013518 70 132 0.0 0.0 0.00 0.09 0.09 91 1014.2
20260509013018 70 132 0.0 0.0 0.00 0.09 0.09 91 1014.5
20260509012521 70 132 0.0 0.0 0.00 0.09 0.09 91 1014.6
20260509012021 70 132 0.0 0.0 0.00 0.09 0.09 91 1014.5
20260509011518 70 132 0.0 0.0 0.00 0.09 0.09 91 1014.4
20260509011018 70 132 0.0 0.0 0.00 0.09 0.09 90 1014.6
20260509010517 70 132 0.0 0.0 0.00 0.09 0.09 90 1014.4
20260509010018 70 132 0.0 0.0 0.00 0.09 0.09 90 1014.1
20260509005516 70 132 0.0 0.0 0.00 0.09 0.09 90 1014.1
20260509005017 70 132 0.0 0.0 0.00 0.09 0.09 90 1013.9
20260509004524 70 132 0.0 0.0 0.00 0.09 0.09 90 1013.9
20260509004018 70 132 0.0 0.0 0.00 0.09 0.09 89 1013.9
20260509003514 70 132 0.0 0.0 0.00 0.09 0.09 89 1013.9
20260509003015 70 132 0.0 0.0 0.00 0.09 0.09 89 1013.9
20260509002513 70 132 0.0 0.0 0.00 0.09 0.09 89 1014.0
20260509002014 70 132 0.0 0.0 0.00 0.09 0.09 89 1014.1
20260509001515 71 132 0.0 0.0 0.00 0.09 0.09 89 1014.0
20260509001013 71 132 0.0 0.0 0.00 0.09 0.09 89 1014.0
20260509000512 71 132 0.0 0.0 0.00 0.09 0.09 89 1014.1
20260509000012 71 132 0.0 0.0 0.00 0.09 0.09 89 1013.7
20260508235512 71 132 0.0 0.0 0.00 0.09 0.09 88 1013.8
20260508235015 71 132 0.0 0.0 0.00 0.09 0.09 88 1013.8
20260508234514 71 132 0.0 0.0 0.00 0.09 0.09 88 1013.8
20260508234010 71 132 0.0 0.0 0.00 0.09 0.09 88 1013.8
20260508233513 71 132 0.0 0.0 0.01 0.09 0.09 88 1013.7
20260508233010 71 132 0.0 1.0 0.02 0.09 0.09 88 1013.8
20260508232509 71 132 0.0 2.0 0.03 0.09 0.09 89 1013.7
20260508232009 72 83 0.0 0.0 0.05 0.09 0.09 89 1013.6
20260508231509 72 83 0.0 0.0 0.08 0.09 0.09 88 1013.6
20260508231008 72 83 0.0 0.0 0.09 0.09 0.09 88 1013.5
20260508230508 72 83 0.0 0.0 0.09 0.09 0.09 88 1013.4
20260508230008 72 83 0.0 0.0 0.09 0.09 0.09 88 1013.5
20260508225509 73 84 0.0 0.0 0.09 0.09 0.09 88 1013.3
20260508225008 73 84 0.0 0.0 0.09 0.09 0.09 88 1013.2
20260508224508 73 126 0.0 0.0 0.09 0.09 0.09 88 1013.1
20260508224007 73 126 0.0 0.0 0.09 0.09 0.09 87 1012.9
20260508223507 74 125 0.0 0.0 0.08 0.08 0.08 87 1012.8
20260508223015 74 124 0.0 0.0 0.07 0.07 0.07 86 1012.7
20260508222508 75 123 0.0 0.0 0.05 0.05 0.05 85 1012.8
20260508222007 75 123 0.0 0.0 0.04 0.04 0.04 84 1013.1
20260508221507 76 123 0.0 2.0 0.01 0.01 0.01 82 1013.1
20260508221007 76 123 0.0 3.0 0.00 0.00 0.00 81 1013.1
20260508220507 76 126 0.0 3.0 0.00 0.00 0.00 80 1013.1
20260508220009 77 124 1.0 4.0 0.00 0.00 0.00 79 1013.0
20260508215511 78 121 1.0 6.0 0.00 0.00 0.00 77 1012.9
20260508215006 78 121 1.0 6.0 0.00 0.00 0.00 77 1013.0
20260508214506 79 128 1.0 6.0 0.00 0.00 0.00 76 1013.1
20260508214006 79 124 2.0 6.0 0.00 0.00 0.00 75 1012.9
20260508213505 79 111 0.0 3.0 0.00 0.00 0.00 75 1012.9
20260508213018 79 44 0.0 2.0 0.00 0.00 0.00 74 1013.2
20260508212507 79 58 0.0 4.0 0.00 0.00 0.00 74 1012.9
20260508212005 79 58 1.0 8.0 0.00 0.00 0.00 74 1013.0
20260508211505 79 48 2.0 8.0 0.00 0.00 0.00 74 1012.9
20260508211007 79 49 1.0 5.0 0.00 0.00 0.00 73 1012.9
20260508210505 79 76 0.0 4.0 0.00 0.00 0.00 73 1012.9
20260508210008 79 84 1.0 6.0 0.00 0.00 0.00 74 1012.8
20260508205505 79 77 1.0 4.0 0.00 0.00 0.00 74 1012.8
20260508205004 79 80 0.0 2.0 0.00 0.00 0.00 74 1012.6
20260508204504 79 82 0.0 5.0 0.00 0.00 0.00 73 1012.6
20260508204005 79 84 0.0 5.0 0.00 0.00 0.00 73 1012.8
20260508203504 79 90 1.0 3.0 0.00 0.00 0.00 73 1013.1
20260508203004 79 92 0.0 3.0 0.00 0.00 0.00 74 1013.0
20260508202504 79 53 0.0 2.0 0.00 0.00 0.00 73 1013.0
20260508202004 79 97 0.0 3.0 0.00 0.00 0.00 73 1013.0
20260508201503 79 88 1.0 3.0 0.00 0.00 0.00 73 1013.0
20260508201003 79 86 0.0 3.0 0.00 0.00 0.00 73 1012.6
20260508200503 80 87 0.0 4.0 0.00 0.00 0.00 72 1012.8
20260508200008 80 79 1.0 4.0 0.00 0.00 0.00 71 1012.9
20260508195502 81 62 1.0 4.0 0.00 0.00 0.00 71 1013.0
20260508195003 81 21 1.0 3.0 0.00 0.00 0.00 71 1013.0
20260508194502 81 81 0.0 3.0 0.00 0.00 0.00 71 1013.3
20260508194002 81 44 0.0 3.0 0.00 0.00 0.00 72 1013.7
20260508193501 82 82 0.0 4.0 0.00 0.00 0.00 70 1013.7
20260508193002 83 53 0.0 3.0 0.00 0.00 0.00 70 1013.7
20260508192502 83 99 1.0 3.0 0.00 0.00 0.00 70 1013.7
20260508192001 83 41 1.0 5.0 0.00 0.00 0.00 70 1013.8
20260508191501 83 81 1.0 5.0 0.00 0.00 0.00 69 1013.9
20260508191001 83 80 0.0 4.0 0.00 0.00 0.00 70 1013.9
20260508190501 83 97 0.0 2.0 0.00 0.00 0.00 71 1013.8
20260508190100 83 49 0.0 5.0 0.00 0.00 0.00 71 1014.1
20260508185600 83 54 1.0 4.0 0.00 0.00 0.00 70 1014.2
20260508185059 83 70 0.0 4.0 0.00 0.00 0.00 70 1014.1
20260508184600 83 123 0.0 4.0 0.00 0.00 0.00 70 1014.1
20260508184057 83 38 0.0 4.0 0.00 0.00 0.00 70 1014.2
20260508183557 82 63 0.0 4.0 0.00 0.00 0.00 70 1014.3
20260508183057 82 67 1.0 4.0 0.00 0.00 0.00 70 1014.3
20260508182555 82 35 1.0 4.0 0.00 0.00 0.00 70 1014.4
20260508182055 82 84 0.0 4.0 0.00 0.00 0.00 71 1014.4
20260508181556 82 51 0.0 4.0 0.00 0.00 0.00 71 1014.4
20260508181052 81 77 1.0 3.0 0.00 0.00 0.00 71 1014.5
20260508180552 81 31 0.0 5.0 0.00 0.00 0.00 72 1014.5
20260508180052 81 69 0.0 3.0 0.00 0.00 0.00 71 1014.5
20260508175552 80 113 0.0 3.0 0.00 0.00 0.00 72 1014.5
20260508175053 81 50 0.0 3.0 0.00 0.00 0.00 71 1014.7
20260508174557 81 62 1.0 3.0 0.00 0.00 0.00 71 1014.7
20260508174051 81 91 0.0 3.0 0.00 0.00 0.00 72 1014.7
20260508173554 81 91 0.0 2.0 0.00 0.00 0.00 73 1014.8
20260508173049 80 50 1.0 4.0 0.00 0.00 0.00 73 1014.7
20260508172547 80 31 1.0 4.0 0.00 0.00 0.00 73 1014.9
20260508172046 79 324 1.0 4.0 0.00 0.00 0.00 74 1014.8
20260508171546 79 46 0.0 3.0 0.00 0.00 0.00 75 1014.8
20260508171045 79 63 0.0 3.0 0.00 0.00 0.00 75 1015.0
20260508170545 79 64 0.0 2.0 0.00 0.00 0.00 74 1015.0
20260508170045 79 71 0.0 0.0 0.00 0.00 0.00 75 1015.1
20260508165543 78 60 0.0 2.0 0.00 0.00 0.00 76 1015.1
20260508165042 78 57 0.0 3.0 0.00 0.00 0.00 76 1015.3
20260508164541 78 82 0.0 3.0 0.00 0.00 0.00 77 1015.5
20260508164141 78 49 0.0 2.0 0.00 0.00 0.00 76 1015.6
20260508163544 77 56 0.0 1.0 0.00 0.00 0.00 76 1015.6
20260508163041 77 24 0.0 2.0 0.00 0.00 0.00 77 1015.7
20260508162541 77 35 0.0 3.0 0.00 0.00 0.00 76 1015.7
20260508162041 77 60 0.0 3.0 0.00 0.00 0.00 76 1015.6
20260508161540 77 37 0.0 2.0 0.00 0.00 0.00 77 1015.6
20260508161041 76 37 0.0 2.0 0.00 0.00 0.00 78 1015.6
20260508160541 76 71 0.0 4.0 0.00 0.00 0.00 77 1015.9
20260508160040 76 71 0.0 4.0 0.00 0.00 0.00 78 1015.9
20260508155539 76 64 0.0 4.0 0.00 0.00 0.00 78 1016.0
20260508155039 77 69 0.0 4.0 0.00 0.00 0.00 78 1016.0
20260508154550 77 36 1.0 3.0 0.00 0.00 0.00 78 1016.0
20260508154038 77 78 0.0 2.0 0.00 0.00 0.00 77 1016.1
20260508153537 77 34 1.0 2.0 0.00 0.00 0.00 78 1016.1
20260508153040 77 44 0.0 2.0 0.00 0.00 0.00 77 1016.0
20260508152538 77 53 0.0 4.0 0.00 0.00 0.00 77 1015.9
20260508152036 77 67 0.0 4.0 0.00 0.00 0.00 77 1016.0
20260508151536 77 82 0.0 4.0 0.00 0.00 0.00 77 1015.9
20260508151036 77 52 0.0 4.0 0.00 0.00 0.00 77 1015.9
20260508150535 77 65 1.0 4.0 0.00 0.00 0.00 77 1015.8
20260508150052 76 5 1.0 3.0 0.00 0.00 0.00 78 1015.7
20260508145535 76 143 0.0 3.0 0.00 0.00 0.00 78 1015.8
20260508145034 75 35 1.0 3.0 0.00 0.00 0.00 79 1015.8
20260508144533 75 34 0.0 2.0 0.00 0.00 0.00 80 1015.8
20260508144035 75 47 0.0 4.0 0.00 0.00 0.00 80 1015.8
20260508143532 75 79 0.0 4.0 0.00 0.00 0.00 80 1015.8
20260508143043 75 55 0.0 2.0 0.00 0.00 0.00 81 1015.8
20260508142531 75 69 0.0 2.0 0.00 0.00 0.00 82 1015.7
20260508142031 75 27 0.0 2.0 0.00 0.00 0.00 82 1015.7
20260508141531 75 84 0.0 3.0 0.00 0.00 0.00 83 1015.8
20260508141031 76 82 0.0 4.0 0.00 0.00 0.00 84 1015.8
20260508140533 77 54 0.0 1.0 0.00 0.00 0.00 85 1015.7
20260508140030 77 51 0.0 2.0 0.00 0.00 0.00 86 1015.6
20260508135529 77 28 0.0 2.0 0.00 0.00 0.00 86 1015.5
20260508135028 77 54 0.0 0.0 0.00 0.00 0.00 87 1015.5
20260508134527 77 54 0.0 0.0 0.00 0.00 0.00 87 1015.5
20260508134027 76 53 0.0 0.0 0.00 0.00 0.00 87 1015.3
20260508133527 76 53 0.0 0.0 0.00 0.00 0.00 88 1015.4
20260508133026 76 53 0.0 0.0 0.00 0.00 0.00 88 1015.4
20260508132526 76 316 0.0 0.0 0.00 0.00 0.00 89 1015.3
20260508132025 76 360 0.0 0.0 0.00 0.00 0.00 90 1015.4
20260508131525 76 360 0.0 0.0 0.00 0.00 0.00 90 1015.2
20260508131025 75 360 0.0 0.0 0.00 0.00 0.00 90 1015.2
20260508130524 75 360 0.0 0.0 0.00 0.00 0.00 90 1015.3
20260508130024 75 360 0.0 0.0 0.00 0.00 0.00 90 1015.3
20260508125524 75 360 0.0 0.0 0.00 0.00 0.00 91 1015.2
20260508125022 75 360 0.0 0.0 0.00 0.00 0.00 91 1015.2
20260508124523 75 360 0.0 0.0 0.00 0.00 0.00 92 1015.1
20260508124022 74 360 0.0 0.0 0.00 0.00 0.00 92 1015.1
20260508123523 74 360 0.0 0.0 0.00 0.00 0.00 92 1015.1
20260508123022 74 360 0.0 0.0 0.00 0.00 0.00 92 1015.0
20260508122521 74 360 0.0 0.0 0.00 0.00 0.00 92 1015.1
20260508122023 74 252 0.0 0.0 0.00 0.00 0.00 92 1015.1
20260508121521 74 252 0.0 0.0 0.00 0.00 0.00 92 1015.1
20260508121020 73 252 0.0 0.0 0.00 0.00 0.00 92 1015.0
20260508120520 73 252 0.0 0.0 0.00 0.00 0.00 92 1014.9
20260508120020 73 252 0.0 0.0 0.00 0.00 0.00 92 1014.9
20260508115519 73 252 0.0 0.0 0.00 0.00 0.00 92 1014.8
20260508115017 73 252 0.0 0.0 0.00 0.00 0.00 92 1014.6
20260508114516 73 252 0.0 0.0 0.00 0.00 0.00 92 1014.5
20260508114016 73 252 0.0 0.0 0.00 0.00 0.00 92 1014.4
20260508113515 73 252 0.0 0.0 0.00 0.00 0.00 92 1014.3
20260508113016 73 251 0.0 0.0 0.00 0.00 0.00 92 1014.1
20260508112515 73 251 0.0 0.0 0.00 0.00 0.00 92 1014.2
20260508112013 72 251 0.0 0.0 0.00 0.00 0.00 92 1014.2
20260508111513 72 251 0.0 0.0 0.00 0.00 0.00 92 1014.0
20260508111014 72 251 0.0 0.0 0.00 0.00 0.00 92 1014.1
20260508110511 72 251 0.0 0.0 0.00 0.00 0.00 92 1013.9
20260508110011 72 251 0.0 0.0 0.00 0.00 0.00 92 1013.9
20260508105511 72 251 0.0 0.0 0.00 0.00 0.00 92 1013.7
20260508105010 72 251 0.0 0.0 0.00 0.00 0.00 92 1013.6
20260508104510 72 251 0.0 0.0 0.00 0.00 0.00 92 1013.4
20260508104009 72 251 0.0 0.0 0.00 0.00 0.00 92 1013.3
20260508103510 72 251 0.0 0.0 0.00 0.00 0.00 92 1013.3
20260508103010 72 251 0.0 0.0 0.00 0.00 0.00 92 1013.5
20260508102509 72 251 0.0 0.0 0.00 0.00 0.00 92 1013.1
20260508102009 72 251 0.0 0.0 0.00 0.00 0.00 92 1013.0
20260508101509 72 251 0.0 0.0 0.00 0.00 0.00 92 1013.1
20260508101009 72 251 0.0 0.0 0.00 0.00 0.00 91 1013.1
20260508100507 72 251 0.0 0.0 0.00 0.00 0.00 91 1013.0
20260508100012 72 251 0.0 0.0 0.00 0.00 0.00 91 1013.1
20260508095507 72 251 0.0 0.0 0.00 0.00 0.00 91 1012.9
20260508095007 72 251 0.0 0.0 0.00 0.00 0.00 91 1012.9
20260508094505 72 251 0.0 0.0 0.00 0.00 0.00 91 1012.8
20260508094009 72 251 0.0 0.0 0.00 0.00 0.00 91 1012.7
20260508093506 72 251 0.0 0.0 0.00 0.00 0.00 91 1012.9
20260508093004 72 251 0.0 0.0 0.00 0.00 0.00 91 1012.7
20260508092506 72 251 0.0 0.0 0.00 0.00 0.00 91 1012.7
20260508092004 72 251 0.0 0.0 0.00 0.00 0.00 91 1012.7
20260508091505 72 251 0.0 0.0 0.00 0.00 0.00 90 1012.8
20260508091004 72 251 0.0 0.0 0.00 0.00 0.00 90 1012.7
20260508090504 72 251 0.0 0.0 0.00 0.00 0.00 90 1012.7
20260508090004 72 251 0.0 0.0 0.00 0.00 0.00 90 1012.6
20260508085502 72 251 0.0 0.0 0.00 0.00 0.00 90 1012.6
20260508085001 72 251 0.0 0.0 0.00 0.00 0.00 90 1012.5
20260508084501 72 251 0.0 0.0 0.00 0.00 0.00 90 1012.6
20260508084101 73 251 0.0 0.0 0.00 0.00 0.00 90 1012.6
20260508083600 73 251 0.0 0.0 0.00 0.00 0.00 90 1012.6
20260508083109 73 251 0.0 0.0 0.00 0.00 0.00 90 1012.8
20260508082600 73 251 0.0 0.0 0.00 0.00 0.00 90 1012.7
20260508082100 73 251 0.0 0.0 0.00 0.00 0.00 90 1012.6
20260508081559 73 251 0.0 0.0 0.00 0.00 0.00 89 1012.7
20260508081059 73 251 0.0 0.0 0.00 0.00 0.00 90 1012.7
20260508080559 73 250 0.0 0.0 0.00 0.00 0.00 89 1012.8
20260508080110 73 250 0.0 0.0 0.00 0.00 0.00 89 1012.7
20260508075559 73 360 0.0 0.0 0.00 0.00 0.00 89 1012.7
20260508075057 73 250 0.0 0.0 0.00 0.00 0.00 89 1012.8
20260508074611 73 251 0.0 0.0 0.00 0.00 0.00 89 1012.7
20260508074055 73 251 0.0 0.0 0.00 0.00 0.00 89 1012.7
20260508073559 73 251 0.0 0.0 0.00 0.00 0.00 89 1012.8
20260508073058 74 251 0.0 0.0 0.00 0.00 0.00 89 1012.9
20260508072558 74 251 0.0 0.0 0.00 0.00 0.00 88 1012.9
20260508072053 74 251 0.0 0.0 0.00 0.00 0.00 88 1012.9
20260508071553 74 251 0.0 0.0 0.00 0.00 0.00 88 1013.1
20260508071053 74 251 0.0 0.0 0.00 0.00 0.00 88 1013.0
20260508070553 74 251 0.0 0.0 0.00 0.00 0.00 88 1013.1
20260508070054 74 249 0.0 0.0 0.00 0.00 0.00 88 1013.1
20260508065552 74 360 0.0 0.0 0.00 0.00 0.00 87 1013.1
20260508065049 74 360 0.0 0.0 0.00 0.00 0.00 87 1013.2
20260508064555 74 360 0.0 0.0 0.00 0.00 0.00 87 1013.2
20260508064048 75 360 0.0 0.0 0.00 0.00 0.00 87 1013.3
20260508063547 75 360 0.0 0.0 0.00 0.00 0.00 87 1013.3
20260508063050 75 360 0.0 0.0 0.00 0.00 0.00 87 1013.3
20260508062546 75 287 0.0 0.0 0.00 0.00 0.00 87 1013.4
20260508062045 75 287 0.0 0.0 0.00 0.00 0.00 87 1013.4
20260508061545 75 287 0.0 0.0 0.00 0.00 0.00 86 1013.4
20260508061048 75 287 0.0 0.0 0.00 0.00 0.00 86 1013.3
20260508060543 75 287 0.0 0.0 0.00 0.00 0.00 86 1013.5
20260508060043 76 287 0.0 0.0 0.00 0.00 0.00 86 1013.4
20260508055543 76 287 0.0 0.0 0.00 0.00 0.00 86 1013.5
20260508055042 76 287 0.0 0.0 0.00 0.00 0.00 85 1013.5
20260508054546 76 286 0.0 0.0 0.00 0.00 0.00 85 1013.5
20260508054042 76 289 0.0 0.0 0.00 0.00 0.00 85 1013.6
20260508053540 76 289 0.0 0.0 0.00 0.00 0.00 85 1013.6
20260508053050 76 289 0.0 3.0 0.00 0.00 0.00 85 1013.5
20260508052540 76 286 0.0 3.0 0.00 0.00 0.00 85 1013.6
20260508052040 76 219 0.0 3.0 0.00 0.00 0.00 84 1013.6
20260508051540 76 230 0.0 0.0 0.00 0.00 0.00 84 1013.5
20260508051037 77 267 0.0 0.0 0.00 0.00 0.00 84 1013.6
20260508050537 77 267 0.0 2.0 0.00 0.00 0.00 83 1013.6
20260508050048 77 301 0.0 2.0 0.00 0.00 0.00 83 1013.5
20260508045536 77 200 0.0 2.0 0.00 0.00 0.00 83 1013.6
20260508045036 77 277 0.0 0.0 0.00 0.00 0.00 83 1013.6
20260508044534 77 277 0.0 0.0 0.00 0.00 0.00 83 1013.6
20260508044034 77 277 0.0 0.0 0.00 0.00 0.00 83 1013.7
20260508043533 77 275 0.0 0.0 0.00 0.00 0.00 82 1013.6
20260508043033 77 273 0.0 0.0 0.00 0.00 0.00 82 1013.6
20260508042533 78 260 0.0 0.0 0.00 0.00 0.00 82 1013.5
20260508042032 78 280 0.0 0.0 0.00 0.00 0.00 82 1013.5
20260508041531 78 279 0.0 3.0 0.00 0.00 0.00 82 1013.6
20260508041032 78 281 1.0 3.0 0.00 0.00 0.00 82 1013.5
20260508040533 78 309 0.0 4.0 0.00 0.00 0.00 81 1013.6
20260508040042 78 281 0.0 4.0 0.00 0.00 0.00 81 1013.5
20260508035529 78 272 0.0 3.0 0.00 0.00 0.00 81 1013.6
20260508035029 78 306 1.0 3.0 0.00 0.00 0.00 81 1013.6